Burien, Washington, United States
Lat: 47.47N, Lon: 122.35W
Wx Zone: WAZ508
Local Info
Past Weather Observations for Today

NOTE: This archive is for the closest National Weather Service station to Burien. Information may differ from the station used for current weather conditions.

Click here for Long-term Archive

Time Weather Temperature Dewpoint Humidity Pressure Winds Precip Visibility
20:53
Overcast
55°F / 13°C 52°F / 11°C 88% 30.04 in
(1017 mb)
SSE 5.8 mph
(SSE 9 kph)
- 10SM
19:53
Overcast
57°F / 14°C 50°F / 10°C 77% 30.04 in
(1017 mb)
S 4.6 mph
(S 7 kph)
- 10SM
18:53
Overcast
57°F / 14°C 50°F / 10°C 77% 30.04 in
(1017 mb)
S 3.5 mph
(S 6 kph)
- 10SM
17:53
Overcast
57°F / 14°C 50°F / 10°C 77% 30.01 in
(1016 mb)
SSE 5.8 mph
(SSE 9 kph)
- 10SM
16:53
Overcast
57°F / 14°C 48°F / 9°C 72% 30.04 in
(1017 mb)
S 5.8 mph
(S 9 kph)
- 10SM
15:53
Overcast
59°F / 15°C 48°F / 9°C 68% 30.04 in
(1017 mb)
Calm - 10SM
14:53
Overcast
61°F / 16°C 48°F / 9°C 63% 30.04 in
(1017 mb)
SSE 6.9 mph
(SSE 11 kph)
- 10SM
13:53
Overcast
59°F / 15°C 48°F / 9°C 68% 30.04 in
(1017 mb)
SW 8.1 mph
(SW 13 kph)
- 10SM
12:53
Overcast
57°F / 14°C 48°F / 9°C 72% 30.04 in
(1017 mb)
SSW 8.1 mph
(SSW 13 kph)
- 10SM
11:53
Overcast
57°F / 14°C 48°F / 9°C 72% 30.04 in
(1017 mb)
SSW 6.9 mph
(SSW 11 kph)
- 10SM
10:53
Overcast
55°F / 13°C 46°F / 8°C 72% 30.04 in
(1017 mb)
SW 9.2 mph
(SW 15 kph)
- 10SM
09:53
Overcast
55°F / 13°C 46°F / 8°C 72% 30.04 in
(1017 mb)
SW 10.4 mph
(SW 17 kph)
- 10SM
08:53
Overcast
54°F / 12°C 46°F / 8°C 77% 30.04 in
(1017 mb)
SW 6.9 mph
(SW 11 kph)
- 10SM
08:47
Overcast
54°F / 12°C 46°F / 8°C 77% 30.04 in
(1017 mb)
SW 6.9 mph
(SW 11 kph)
- 10SM
07:53
Overcast
54°F / 12°C 46°F / 8°C 77% 30.04 in
(1017 mb)
SSE 5.8 mph
(SSE 9 kph)
- 10SM
06:53
Overcast
54°F / 12°C 48°F / 9°C 82% 30.04 in
(1017 mb)
SW 5.8 mph
(SW 9 kph)
- 10SM
05:53
Overcast
54°F / 12°C 48°F / 9°C 82% 30.04 in
(1017 mb)
SW 6.9 mph
(SW 11 kph)
- 10SM
04:53
Overcast
54°F / 12°C 48°F / 9°C 82% 30.01 in
(1016 mb)
S 5.8 mph
(S 9 kph)
- 10SM
03:53
Overcast
54°F / 12°C 46°F / 8°C 77% 30.01 in
(1016 mb)
SSE 4.6 mph
(SSE 7 kph)
- 10SM
03:27
Overcast
54°F / 12°C 46°F / 8°C 77% 30.01 in
(1016 mb)
SSE 6.9 mph
(SSE 11 kph)
- 10SM
02:53
Overcast
54°F / 12°C 48°F / 9°C 82% 30.04 in
(1017 mb)
SW 3.5 mph
(SW 6 kph)
- 10SM
02:40
Overcast
54°F / 12°C 48°F / 9°C 82% 30.04 in
(1017 mb)
SSE 4.6 mph
(SSE 7 kph)
- 10SM
01:53
Overcast
52°F / 11°C 48°F / 9°C 88% 30.01 in
(1016 mb)
SW 5.8 mph
(SW 9 kph)
- 10SM
01:36
Mostly Cloudy
52°F / 11°C 46°F / 8°C 82% 30.01 in
(1016 mb)
SW 5.8 mph
(SW 9 kph)
- 10SM
00:53
Overcast
54°F / 12°C 46°F / 8°C 77% 30.04 in
(1017 mb)
SW 9.2 mph
(SW 15 kph)
- 10SM
Time Weather Temperature Dewpoint Humidity Pressure Winds Precip Visibility


Weather for websites

WeatherForYou.com, LLC is not responsible for any damages or problems caused by this service. Current weather conditions are obtained from the closest station including government and personal stations which may have varying degrees of accuracy. Weather forecasts are derived from the NOAA NDFD. Like all things, this site belongs to Jesus Christ... He just trusts us to maintain it. If you have any questions or comments email webmaster@weatherforyou.com

Copyright © 2015, WeatherForYou.com LLC. All rights reserved.